Saint Simons Island, GA

9:03 PM EST on February 20, 2017 (GMT -0500)
McKinnon

Weather History for KSSI - January, 2012

Change the Weather History Date:

Thursday, January 12, 2012

  Actual Average Record
Temperature  
Mean Temperature 60 °F 51 °F  
Max Temperature 71 °F 60 °F 80 °F (1949)
Min Temperature 48 °F 42 °F 21 °F (1981)
Degree Days  
Heating Degree Days 5 14  
Month to date heating degree days 118 168  
Since 1 July heating degree days 465 699  
Cooling Degree Days 0 0  
Month to date cooling degree days 0 0  
Year to date cooling degree days 0 0  
Growing Degree Days 9 (Base 50)    
Moisture  
Dew Point 51 °F    
Average Humidity 76    
Maximum Humidity 100    
Minimum Humidity 51    
Precipitation  
Precipitation 0.00 in 0.10 in 1.25 in (1979)
Month to date precipitation 0.40 1.11  
Year to date precipitation 0.40 1.11  
Snow  
Snow 0.00 in - 0.00 in ()
Month to date snowfall 0.0  
Since 1 July snowfall 0.0  
Snow Depth 0.00 in    
Sea Level Pressure  
Sea Level Pressure 29.82 in    
Wind  
Wind Speed 10 mph (SW)    
Max Wind Speed 21 mph    
Max Gust Speed 30 mph    
Visibility 10 miles    
Events      
T = Trace of Precipitation, MM = Missing Value Source: NWS Daily Summary

Daily Weather History Graph

Daily Weather History Graph

Search for Another Location

Airport or City:

Trip Planner

Search our weather history database for the weather conditions in past years. The results will help you decide how hot, cold, wet, or windy it might be!

Date:

Astronomy

Jan. 12, 2012 Rise Set
Actual Time 7:24 AM EST 5:42 PM EST
Civil Twilight 6:58 AM EST 6:09 PM EST
Nautical Twilight 6:28 AM EST 6:38 PM EST
Astronomical Twilight 5:59 AM EST 7:08 PM EST
Moon 9:27 PM EST (1/12) 9:24 AM EST (1/12)
Length of Visible Light 11h 10m
Length of Day
10h 17m
Waning Gibbous, 87% of the Moon is Illuminated
Jan 12
Waning Gibbous
Jan 16
Last Quarter
Jan 23
New
Jan 30
First Quarter
Feb 7
Full

Hourly Weather History & Observations

Time (EST) Temp. Dew Point Humidity Pressure Visibility Wind Dir Wind Speed Gust Speed Precip Events Conditions
12:53 AM 55.9 °F 51.1 °F 84% 29.80 in 10.0 mi SW 10.4 mph - N/A   Scattered Clouds
1:53 AM 55.0 °F 50.0 °F 83% 29.81 in 10.0 mi WSW 8.1 mph - N/A   Partly Cloudy
2:53 AM 53.1 °F 50.0 °F 89% 29.82 in 10.0 mi WSW 5.8 mph - N/A   Clear
3:53 AM 51.1 °F 48.9 °F 92% 29.82 in 10.0 mi West 3.5 mph - N/A   Clear
4:53 AM 48.9 °F 48.0 °F 97% 29.83 in 10.0 mi WSW 3.5 mph - N/A   Clear
5:53 AM 48.9 °F 48.0 °F 97% 29.85 in 7.0 mi SW 3.5 mph - N/A   Clear
6:53 AM 50.0 °F 48.0 °F 93% 29.86 in 10.0 mi SW 5.8 mph - N/A   Clear
7:53 AM 50.0 °F 48.9 °F 96% 29.87 in 10.0 mi WSW 6.9 mph - N/A   Clear
8:53 AM 53.1 °F 50.0 °F 89% 29.88 in 10.0 mi WSW 6.9 mph - N/A   Clear
9:53 AM 57.0 °F 51.1 °F 81% 29.89 in 10.0 mi SW 8.1 mph - N/A   Clear
10:53 AM 61.0 °F 50.0 °F 67% 29.89 in 10.0 mi WSW 9.2 mph - N/A   Mostly Cloudy
11:53 AM 63.0 °F 51.1 °F 65% 29.85 in 10.0 mi WSW 11.5 mph - N/A   Clear
12:53 PM 66.0 °F 53.1 °F 63% 29.81 in 10.0 mi WSW 11.5 mph - N/A   Partly Cloudy
1:53 PM 69.1 °F 52.0 °F 54% 29.79 in 10.0 mi SW 15.0 mph - N/A   Clear
2:53 PM 70.0 °F 50.0 °F 49% 29.78 in 10.0 mi WSW 12.7 mph 19.6 mph N/A   Clear
3:53 PM 70.0 °F 50.0 °F 49% 29.76 in 10.0 mi SW 10.4 mph - N/A   Clear
4:53 PM 69.1 °F 52.0 °F 54% 29.77 in 10.0 mi SW 10.4 mph - N/A   Clear
5:53 PM 68.0 °F 53.1 °F 59% 29.77 in 10.0 mi SSW 17.3 mph 23.0 mph N/A   Clear
6:53 PM 66.9 °F 53.1 °F 61% 29.78 in 10.0 mi SSW 12.7 mph 18.4 mph N/A   Clear
7:53 PM 66.0 °F 52.0 °F 60% 29.78 in 10.0 mi SSW 15.0 mph 24.2 mph N/A   Clear
8:53 PM 66.0 °F 54.0 °F 65% 29.80 in 10.0 mi SSW 13.8 mph 25.3 mph N/A   Clear
9:53 PM 64.9 °F 55.9 °F 73% 29.82 in 10.0 mi SW 17.3 mph 27.6 mph N/A   Scattered Clouds
10:53 PM 64.0 °F 55.9 °F 75% 29.83 in 10.0 mi SW 15.0 mph - N/A   Partly Cloudy
11:53 PM 61.0 °F 46.0 °F 58% 29.87 in 10.0 mi West 11.5 mph 26.5 mph N/A   Partly Cloudy